Overview Statistics Trail Chart Weather Telemetry Raw packets
 

This is the latest recevied weather packets stored in our database for station/object OK1TBM-13. If no packets are shown the sender has not sent any weather packets the latest 10 day(s).

<< 89 90 91 92 93 94 95 >>
Time Temp. Humidity Pressure Rain* Wind** Luminosity Snow
1787834702 30.56° C 39% 1016.9 hPa 0 mm - 644 W/m² -
1787834402 30.56° C 39% 1016.9 hPa 0 mm - 681 W/m² -
1787834102 30.56° C 40% 1016.9 hPa 0 mm - 667 W/m² -
1787833806 30.56° C 39% 1016.9 hPa 0 mm - 677 W/m² -
1787833202 30.56° C 39% 1016.9 hPa 0 mm - 689 W/m² -
1787832902 31.11° C 40% 1016.9 hPa 0 mm - 698 W/m² -
1787832601 30° C 40% 1016.9 hPa 0 mm - 707 W/m² -
1787832302 30.56° C 41% 1016.9 hPa 0 mm - 704 W/m² -
1787832007 30.56° C 41% 1016.9 hPa 0 mm - 712 W/m² -
1787831401 29.44° C 41% 1016.9 hPa 0 mm - 716 W/m² -
1787831102 28.89° C 41% 1016.9 hPa 0 mm - 716 W/m² -
1787830802 29.44° C 41% 1016.9 hPa 0 mm - 725 W/m² -
1787830501 29.44° C 41% 1016.9 hPa 0 mm - 740 W/m² -
1787830208 29.44° C 42% 1016.9 hPa 0 mm - 736 W/m² -
1787829903 28.89° C 41% 1017.3 hPa 0 mm - 739 W/m² -
1787829602 29.44° C 41% 1017.3 hPa 0 mm - 746 W/m² -
1787829302 30° C 40% 1017.3 hPa 0 mm - 742 W/m² -
1787829002 28.89° C 41% 1017.3 hPa 0 mm - 746 W/m² -
1787828701 29.44° C 42% 1017.3 hPa 0 mm - 743 W/m² -
1787828401 30° C 41% 1017.3 hPa 0 mm - 744 W/m² -
1787828101 29.44° C 43% 1017.3 hPa 0 mm - 738 W/m² -
1787827802 28.33° C 43% 1017.3 hPa 0 mm - 729 W/m² -
1787827501 29.44° C 42% 1017.3 hPa 0 mm - 742 W/m² -
1787827201 29.44° C 41% 1017.3 hPa 0 mm - 733 W/m² -
1787826901 29.44° C 42% 1017.3 hPa 0 mm - 729 W/m² -

* Rain latest hour (hover to see other rain measurements)
** Current wind speed in m/s (hover to see current wind gust speed)